GW2887 Weather Reports


Display with metric or nautical units.
time (UTC)temp
F
wind
direction
speed
MPH
gust
MPH
rain 1hr
in
rain 24hr
in
rain mn
in
humidity
%
barometer
mb
20260508073002 37 269 3.0 9.0 0.00 0.01 0.01 87 1022.7
20260508071601 37 321 1.0 9.0 0.00 0.01 0.01 88 1022.5
20260508070059 36 327 3.0 9.0 0.00 0.01 0.01 90 1022.4
20260508064557 36 326 2.0 9.0 0.00 0.01 0.01 91 1022.2
20260508063059 36 330 3.0 9.0 0.00 0.01 0.01 88 1022.1
20260508061557 37 167 2.0 5.0 0.00 0.01 0.01 87 1021.9
20260508060110 38 146 0.0 9.0 0.00 0.01 0.01 87 1021.8
20260508054637 37 146 0.0 9.0 0.00 0.01 0.01 90 1021.6
20260508053053 36 129 1.0 9.0 0.00 0.01 0.01 88 1021.6
20260508051549 38 117 3.0 9.0 0.00 0.01 0.01 87 1021.4
20260508050047 37 211 0.0 9.0 0.00 0.01 0.01 90 1021.3
20260508044542 34 193 0.0 9.0 0.01 0.01 0.01 92 1021.3
20260508043040 34 9 0.0 9.0 0.01 0.01 0.01 93 1021.1
20260508041542 34 200 0.0 9.0 0.01 0.01 0.01 93 1021.0
20260508040038 34 246 1.0 9.0 0.01 0.01 0.01 92 1021.0
20260508034546 35 232 4.0 8.0 0.00 0.00 0.00 92 1021.0
20260508033035 34 243 0.0 6.0 0.00 0.00 0.00 94 1020.8
20260508031534 34 318 0.0 6.0 0.00 0.00 0.00 94 1020.6
20260508030031 34 318 0.0 6.0 0.00 0.00 0.00 94 1020.6
20260508024529 34 318 0.0 6.0 0.00 0.00 0.00 94 1020.6
20260508023027 33 318 0.0 6.0 0.00 0.00 0.00 94 1020.5
20260508021526 33 323 1.0 6.0 0.00 0.00 0.00 94 1020.4
20260508020025 33 308 2.0 6.0 0.00 0.00 0.00 93 1020.3
20260508014525 33 311 2.0 6.0 0.00 0.00 0.00 93 1020.1
20260508013019 33 314 4.0 5.0 0.00 0.00 0.00 93 1020.0
20260508011517 33 325 2.0 4.0 0.00 0.00 0.00 92 1019.8
20260508010026 33 309 1.0 4.0 0.00 0.00 0.00 90 1019.7
20260508004519 34 326 0.0 4.0 0.00 0.00 0.00 90 1019.5
20260508003009 33 330 1.0 4.0 0.00 0.00 0.00 90 1019.4
20260508001507 34 344 0.0 4.0 0.00 0.00 0.00 89 1019.2
20260508000006 34 318 1.0 4.0 0.00 0.00 0.00 89 1019.1
20260507234504 33 318 3.0 4.0 0.00 0.00 0.00 89 1019.0
20260507233003 33 330 2.0 4.0 0.00 0.00 0.00 89 1018.9
20260507231559 33 308 3.0 5.0 0.00 0.00 0.00 90 1018.9
20260507230056 33 6 0.0 4.0 0.00 0.00 0.00 87 1018.7
20260507224554 33 329 1.0 4.0 0.00 0.00 0.00 89 1018.6
20260507223052 33 346 1.0 4.0 0.00 0.00 0.00 87 1018.5
20260507221548 34 321 0.0 2.0 0.00 0.00 0.00 85 1018.4
20260507220045 34 318 1.0 2.0 0.00 0.00 0.00 87 1018.3
20260507214547 34 347 1.0 2.0 0.00 0.00 0.00 84 1018.2
20260507213041 35 332 0.0 4.0 0.00 0.00 0.00 86 1018.2
20260507211543 34 327 1.0 4.0 0.00 0.00 0.00 86 1018.0
20260507210038 34 321 2.0 4.0 0.00 0.00 0.00 87 1017.7
20260507204532 36 322 2.0 4.0 0.00 0.00 0.00 84 1017.5
20260507203036 36 290 2.0 3.0 0.00 0.00 0.00 85 1017.5
20260507201532 36 297 1.0 3.0 0.00 0.00 0.00 84 1017.5
20260507200030 36 288 1.0 3.0 0.00 0.00 0.00 82 1017.3
20260507194530 37 282 1.0 6.0 0.00 0.00 0.00 81 1017.1
20260507193033 37 286 3.0 16.0 0.00 0.00 0.00 81 1017.0
20260507191524 37 252 3.0 16.0 0.00 0.00 0.00 81 1017.0
20260507190026 36 297 7.0 16.0 0.00 0.00 0.00 83 1016.8
20260507184519 40 266 6.0 10.0 0.00 0.00 0.00 72 1016.7
20260507183034 40 275 3.0 10.0 0.00 0.00 0.00 70 1016.5
20260507181516 40 296 3.0 10.0 0.00 0.00 0.00 69 1016.3
20260507180015 42 288 5.0 10.0 0.00 0.00 0.00 65 1016.3
20260507174516 42 231 2.0 9.0 0.00 0.00 0.00 65 1016.1
20260507173012 42 246 5.0 9.0 0.00 0.00 0.00 65 1016.1
20260507171511 41 246 4.0 11.0 0.00 0.00 0.00 65 1016.1
20260507170010 41 251 5.0 11.0 0.00 0.00 0.00 67 1016.0
20260507164508 41 277 6.0 11.0 0.00 0.00 0.00 73 1015.9
20260507163008 41 230 5.0 9.0 0.00 0.00 0.00 74 1015.8
20260507161508 40 246 3.0 10.0 0.00 0.00 0.00 74 1015.8
20260507160017 41 269 5.0 10.0 0.00 0.00 0.00 69 1015.7
20260507154503 42 256 4.0 8.0 0.00 0.00 0.00 69 1015.6
20260507153004 42 260 3.0 9.0 0.00 0.00 0.00 73 1015.6
20260507151600 41 257 7.0 11.0 0.00 0.00 0.00 68 1015.5
20260507144554 0 0.0 0.0 0.00 0.00 0.00 1015.4
20260507143051 0 0.0 0.0 0.00 0.00 0.00 1015.3
20260507141546 0 0.0 0.0 0.00 0.00 0.00 1015.2
20260507140043 41 273 5.0 0.0 0.00 0.00 0.00 72 1015.0
20260507134537 40 273 2.0 0.0 0.00 0.00 0.00 73 1015.0
20260507133035 41 310 3.0 0.0 0.00 0.00 0.00 73 1015.0
20260507131535 40 329 5.0 0.0 0.00 0.00 0.00 83 1014.9
20260507130031 38 346 8.0 0.0 0.00 0.00 0.00 80 1014.9
20260507124545 37 318 8.0 0.0 0.00 0.00 0.00 82 1014.9
20260507123027 39 317 8.0 0.0 0.00 0.00 0.00 76 1014.9
20260507121523 39 287 5.0 0.0 0.00 0.00 0.00 73 1014.7
20260507120021 39 314 4.0 0.0 0.00 0.00 0.00 71 1014.7
20260507114519 39 291 3.0 0.0 0.00 0.04 0.00 72 1014.6
20260507113019 39 283 5.0 0.0 0.00 0.04 0.00 69 1014.4
20260507111516 41 243 3.0 0.0 0.00 0.04 0.00 65 1014.2
20260507110024 41 169 6.0 0.0 0.00 0.04 0.00 1014.0
20260507104506 0 0.0 0.0 0.00 0.04 0.00 1014.0
20260507103002 0 0.0 0.0 0.00 0.04 0.00 1013.8
20260507101559 0 0.0 0.0 0.00 0.04 0.00 1013.7
20260507100056 0 0.0 0.0 0.00 0.04 0.00 1013.6
20260507094549 0 0.0 0.0 0.00 0.04 0.00 1013.6
20260507093045 0 0.0 0.0 0.00 0.04 0.00 1013.5
20260507091544 41 156 7.0 0.0 0.00 0.04 0.00 68 1013.4
20260507090039 41 197 7.0 0.0 0.00 0.04 0.00 67 1013.4
20260507084539 41 224 7.0 0.0 0.00 0.04 0.00 66 1013.4
20260507083036 41 229 8.0 0.0 0.00 0.04 0.00 66 1013.3
20260507081533 0 0.0 0.0 0.00 0.04 0.00 1013.2
20260507080029 0 0.0 0.0 0.00 0.04 0.00 1013.1
20260507074524 0 0.0 0.0 0.00 0.04 0.00 1013.0